Regional Weather Roundup
Issued by NWS

Home | Current Version | Previous Version | Text Only | Print | Product List | Glossary Off
Versions: 1 2 3 4 5 6 7 8 9 10 11 12 13 14 15 16 17 18 19 20 21 22 23 24 25 26 27 28 29 30 31 32 33 34 35 36 37 38 39 40 41 42 43 44 45 46 47 48 49 50

000
ASUS43 KBIS 280920
RWRND

NORTH DAKOTA REGIONAL WEATHER ROUNDUP
NATIONAL WEATHER SERVICE BISMARCK ND
400 AM CDT MON JUL 28 2014

NOTE: "FAIR" INDICATES FEW OR NO CLOUDS BELOW 12,000 FEET WITH NO
SIGNIFICANT WEATHER AND/OR OBSTRUCTIONS TO VISIBILITY.


NDZ001>003-009>011-017-281000-
NORTHWEST NORTH DAKOTA

CITY           SKY/WX    TMP DP  RH WIND       PRES   REMARKS
WILLISTON      CLEAR     52  49  89 CALM      30.32R
MINOT          CLEAR     53  49  86 S3        30.30S
MINOT AFB      PTCLDY    50  50  99 CALM      30.30R
$$

NDZ018>021-031>035-040>046-281000-
SOUTHWEST NORTH DAKOTA

CITY           SKY/WX    TMP DP  RH WIND       PRES   REMARKS
BISMARCK       CLEAR     48  47  96 W3        30.33R
DICKINSON      CLEAR     50  47  89 S7        30.32F
GARRISON         N/A     49  48  97 CALM      30.32R
HETTINGER ARPT CLEAR     46  45  96 CALM      30.36R FOG
$$

NDZ004>008-012>016-024-026-027-054-281000-
NORTHEAST NORTH DAKOTA

CITY           SKY/WX    TMP DP  RH WIND       PRES   REMARKS
GRAND FORKS    CLOUDY    60  55  83 NW5         N/A
GRND FRKS AFB  CLOUDY    60  57  92 NW7       30.25S
DEVILS LAKE    CLEAR     52  46  82 NW7       30.27S
$$

NDZ022-023-025-028>030-036>039-047>053-281000-
SOUTHEAST NORTH DAKOTA

CITY           SKY/WX    TMP DP  RH WIND       PRES   REMARKS
FARGO          CLOUDY    61  55  81 NW7       30.23R
JAMESTOWN      CLOUDY    57  54  89 NW7       30.28S
$$




USA.gov is the U.S. government's official web portal to all federal, state and local government web resources and services.